Flag for Canada Weather past 2 weeks in St. Albert, Alberta, Canada

Now
55 °F

Cool.


Feels Like: 52 °F
Forecast: 49 / 70 °F
Wind: 10 mph from South

Location: Edmonton Municipal

Current Time: Jun 3, 2015 at 8:04:19 AM

Latest Report: Jun 3, 2015 at 7:00 AM


Visibility: N/A

Pressure: 29.92 "Hg

Humidity: 69%

Dew point: 45 °F

Location of St. AlbertLocation

Historic Weather in St. Albert — Graph

°F

St. Albert temperature yesterday

Maximum temperature yesterday: 65 °F (at 8:00 PM)
Minimum temperature yesterday: 45 °F (at 8:00 AM)
Average temperature yesterday: 54 °F

Past Weeks' High & Low Weather Summary

 TemperatureHumidityPressure
High80 °F (May 23, 4:00 PM)89% (Jun 2, 8:00 AM)30.37 "Hg (Jun 2, 8:00 AM)
Low41 °F (May 29, 5:00 AM)11% (May 22, 5:00 PM)29.76 "Hg (May 31, 4:00 PM)
Average61 °F40%30.03 "Hg
* Reported May 19 7:00 AM — Jun 3 7:00 AM, St. Albert, Weather by CustomWeather, © 2015

Note: Actual official high and low records may vary slightly from our data, if they occured in-between our weather recording intervals... More about our weather records

Advertising

St. Albert weather history for previous 24 hours

 ConditionsComfort  
Time TempWeatherWind HumidityBarometerVisibility
7:00 AM
Wed, Jun 3
55 °FCool.10 mph69%29.92 "HgN/A
6:00 AM52 °FCool.8 mph77%29.92 "HgN/A
5:00 AM52 °FCool.8 mph77%29.92 "HgN/A
4:00 AM52 °FCool.8 mph75%29.91 "HgN/A
3:00 AM52 °FCool.8 mph76%29.92 "HgN/A
2:00 AM54 °FCool.9 mph74%29.92 "HgN/A
1:00 AM57 °FCool.12 mph67%29.92 "HgN/A
12:00 AM59 °FCool.14 mph61%29.92 "HgN/A
11:00 PM
Tue, Jun 2
60 °FCool.12 mph61%29.91 "HgN/A
10:00 PM61 °FRefreshingly cool.12 mph59%29.91 "HgN/A
9:00 PM64 °FMild.12 mph50%29.90 "HgN/A
8:00 PM65 °FMild.13 mph53%29.90 "HgN/A
7:00 PM63 °FMild.10 mph58%29.91 "HgN/A
6:00 PM63 °FMild.14 mph58%29.92 "HgN/A
5:00 PM62 °FMild.15 mph56%29.93 "HgN/A
4:00 PM60 °FCool.12 mph61%29.96 "HgN/A
3:00 PM58 °FCool.13 mph64%29.98 "HgN/A
2:00 PM54 °FCool.13 mph69%30.00 "HgN/A
1:00 PM55 °FCool.13 mph66%30.02 "HgN/A
11:00 AM50 °FCool.8 mph70%30.04 "HgN/A
10:00 AM49 °FCool.5 mph84%30.06 "HgN/A
9:00 AM46 °FCool.6 mph87%30.05 "HgN/A
8:00 AM45 °FCool.7 mph89%30.06 "HgN/A
Weather by CustomWeather, © 2015

See weather overviewHow to use our weather pages